Flag for Germany Weather past 2 weeks in Coburg, Bavaria, Germany

Now
61 °F

Overcast.


Feels Like: 61 °F
Forecast: 56 / 80 °F
Wind: 3 mph from Northwest

Location: Bamberg

Current Time: Aug 1, 2015 at 2:30:15 AM

Latest Report: Aug 1, 2015 at 2:00 AM


Visibility: 44 mi

Pressure: 29.99 "Hg

Humidity: 57%

Dew point: 45 °F

Location of CoburgLocation

Historic Weather in Coburg — Graph

°F

Coburg temperature yesterday

Maximum temperature yesterday: 72 °F (at 6:00 PM)
Minimum temperature yesterday: 44 °F (at 4:00 AM)
Average temperature yesterday: 61 °F

Past Weeks' High & Low Weather Summary

 TemperatureHumidityPressure
High95 °F (Jul 22, 4:00 PM)99% (Jul 23, 2:00 AM)30.13 "Hg (Jul 23, 2:00 AM)
Low44 °F (Jul 31, 4:00 AM)19% (Jul 17, 6:00 PM)29.64 "Hg (Jul 25, 1:00 AM)
Average69 °F64%29.90 "Hg
* Reported Jul 17 1:00 AM — Aug 1 1:00 AM, Coburg, Weather by CustomWeather, © 2015

Note: Actual official high and low records may vary slightly from our data, if they occured in-between our weather recording intervals... More about our weather records

Advertising

Coburg weather history for previous 24 hours

 ConditionsComfort  
Time TempWeatherWind HumidityBarometerVisibility
1:00 AM
Sat, Aug 1
61 °FOvercast.3 mph55%29.98 "Hg43 mi
12:00 AM62 °FOvercast.5 mph53%29.98 "Hg43 mi
11:00 PM
Fri, Jul 31
60 °FOvercast.2 mph61%29.99 "Hg43 mi
10:00 PM63 °FOvercast.2 mph56%29.98 "Hg43 mi
9:00 PM68 °FOvercast.3 mph42%29.97 "Hg43 mi
8:00 PM71 °FPartly sunny.5 mph37%29.97 "Hg43 mi
7:00 PM72 °FOvercast.3 mph34%29.98 "Hg43 mi
6:00 PM72 °FOvercast.2 mph33%29.98 "Hg43 mi
5:00 PM72 °FOvercast.2 mph33%30.01 "Hg31 mi
4:00 PM72 °FOvercast.3 mph35%30.01 "Hg37 mi
3:00 PM69 °FPassing clouds.2 mph35%30.04 "Hg19 mi
2:00 PM70 °FSunny.2 mph39%30.06 "Hg40 mi
1:00 PM69 °FPassing clouds.2 mph45%30.07 "Hg25 mi
12:00 PM65 °FSunny.1 mph45%30.09 "Hg40 mi
11:00 AM64 °FSunny.2 mph53%30.09 "Hg25 mi
10:00 AM61 °FSunny.2 mph60%30.11 "Hg25 mi
9:00 AM58 °FSunny.3 mph70%30.11 "Hg17 mi
8:00 AM54 °FSunny.2 mph78%30.12 "Hg17 mi
7:00 AM45 °FSunny.1 mph92%30.13 "Hg12 mi
5:00 AM44 °FClear.1 mph97%30.11 "Hg16 mi
4:00 AM44 °FClear.1 mph95%30.10 "Hg15 mi
3:00 AM46 °FPassing clouds.1 mph94%30.09 "Hg22 mi
2:00 AM49 °FOvercast.No wind94%30.08 "Hg28 mi
Weather by CustomWeather, © 2015

See weather overviewHow to use our weather pages